ELY402 LLER-LLBG

Flight info

Callsign ELY402
Flight time N/A
Altitude 18000
Route NURIT J10 AMMIT
Aircraft B738/M-SDE2E3FGHIJ1LORVWXY/LB1

Departure

Time 2026-05-01 13:58
Airport Ramon International Airport (LLER)

Arrival

Time N/A
Airport Ben Gurion International Airport (LLBG)
Time Latitude Longitude Altitude Speed Heading
2026-05-01 13:42 29.72675 35.00833 300 ft 0 kts 284°
2026-05-01 13:49 29.72672 35.00845 300 ft 4 kts 284°
2026-05-01 13:49 29.72666 35.00875 298 ft 4 kts 284°
2026-05-01 13:49 29.72660 35.00900 297 ft 4 kts 280°
2026-05-01 13:50 29.72663 35.00926 297 ft 4 kts 227°
2026-05-01 13:50 29.72682 35.00940 298 ft 2 kts 198°
2026-05-01 13:50 29.72669 35.00937 298 ft 0 kts 194°
2026-05-01 13:52 29.72668 35.00936 298 ft 0 kts 194°
2026-05-01 13:52 29.72651 35.00931 300 ft 5 kts 194°
2026-05-01 13:53 29.72603 35.00918 297 ft 8 kts 194°
2026-05-01 13:53 29.72500 35.00889 298 ft 7 kts 194°
2026-05-01 13:53 29.72451 35.00885 297 ft 7 kts 163°
2026-05-01 13:54 29.72421 35.00926 300 ft 8 kts 102°
2026-05-01 13:54 29.72408 35.00999 300 ft 10 kts 102°
2026-05-01 13:54 29.72384 35.01074 301 ft 10 kts 139°
2026-05-01 13:54 29.72318 35.01076 297 ft 10 kts 193°
2026-05-01 13:55 29.72252 35.01071 300 ft 10 kts 160°
2026-05-01 13:55 29.72223 35.01129 300 ft 6 kts 102°
2026-05-01 13:55 29.72220 35.01141 299 ft 0 kts 102°
2026-05-01 13:56 29.72220 35.01143 299 ft 1 kts 102°
2026-05-01 13:57 29.72215 35.01172 297 ft 7 kts 102°
2026-05-01 13:57 29.72202 35.01247 297 ft 11 kts 94°
2026-05-01 13:57 29.72263 35.01286 300 ft 11 kts 13°
2026-05-01 13:57 29.72358 35.01312 300 ft 29 kts 13°
2026-05-01 13:58 29.72802 35.01434 298 ft 102 kts 13°
2026-05-01 13:58 29.73707 35.01683 339 ft 157 kts 12°
2026-05-01 13:58 29.74766 35.02032 1039 ft 156 kts 11°
2026-05-01 13:58 29.75860 35.02216 1705 ft 164 kts
2026-05-01 13:59 29.77011 35.02373 2523 ft 164 kts 13°
2026-05-01 13:59 29.78168 35.02756 3083 ft 186 kts 12°
2026-05-01 13:59 29.79492 35.03237 3461 ft 210 kts 13°
2026-05-01 13:59 29.80985 35.03741 3786 ft 231 kts
2026-05-01 14:00 29.82586 35.04029 4219 ft 231 kts 359°
2026-05-01 14:00 29.84170 35.04059 4543 ft 227 kts 357°
2026-05-01 14:00 29.85750 35.04116 4903 ft 228 kts 359°
2026-05-01 14:00 29.87344 35.04232 5000 ft 230 kts
2026-05-01 14:01 29.88946 35.04384 5158 ft 231 kts
2026-05-01 14:01 29.90553 35.04546 5947 ft 233 kts
2026-05-01 14:01 29.92180 35.04741 6777 ft 237 kts
2026-05-01 14:01 29.93823 35.04945 7579 ft 240 kts
2026-05-01 14:02 29.95504 35.05156 8356 ft 245 kts
2026-05-01 14:02 29.97211 35.05371 9164 ft 249 kts
2026-05-01 14:02 29.98951 35.05591 9947 ft 253 kts
2026-05-01 14:02 30.00713 35.05814 10671 ft 256 kts
2026-05-01 14:03 30.02534 35.06043 11145 ft 275 kts
2026-05-01 14:03 30.04531 35.06290 11334 ft 302 kts
2026-05-01 14:03 30.06708 35.06562 11549 ft 327 kts
2026-05-01 14:03 30.09036 35.06962 11877 ft 347 kts
2026-05-01 14:04 30.11440 35.07465 12533 ft 354 kts
2026-05-01 14:04 30.13867 35.07989 13312 ft 357 kts
2026-05-01 14:04 30.16317 35.08509 14067 ft 360 kts
2026-05-01 14:04 30.17987 35.08856 14512 ft 363 kts
2026-05-01 14:05 30.21312 35.09536 15353 ft 369 kts
2026-05-01 14:05 30.23847 35.10048 16129 ft 369 kts
2026-05-01 14:05 30.26379 35.10541 16986 ft 368 kts
2026-05-01 14:05 30.28905 35.11026 17658 ft 371 kts
2026-05-01 14:06 30.31458 35.11519 18013 ft 372 kts
2026-05-01 14:06 30.34018 35.12013 18029 ft 376 kts
2026-05-01 14:06 30.35792 35.12350 18061 ft 388 kts
2026-05-01 14:07 30.41353 35.13402 18060 ft 420 kts
2026-05-01 14:07 30.47711 35.14625 18050 ft 434 kts
2026-05-01 14:08 30.53611 35.15762 18039 ft 428 kts
2026-05-01 14:08 30.56524 35.16488 18037 ft 431 kts 12°
2026-05-01 14:08 30.59339 35.17726 18062 ft 434 kts 19°
2026-05-01 14:08 30.62124 35.19115 18046 ft 436 kts 19°
2026-05-01 14:09 30.64902 35.20525 18048 ft 437 kts 19°
2026-05-01 14:09 30.67701 35.21937 18058 ft 438 kts 19°
2026-05-01 14:09 30.69555 35.22864 18055 ft 439 kts 19°
2026-05-01 14:09 30.73324 35.24731 18051 ft 440 kts 19°
2026-05-01 14:10 30.75193 35.25650 18055 ft 440 kts 19°